User: anonymous   Login
Location: Unspecified
(0.0000°N, 0.0000°E)
Time: 00:15:24
(UTC+02:00)
Language:

Cosmos 1892 Rocket - Orbit

View from above orbital plane
View from above orbital plane
View from above satellite
View from above satellite

Ground track
Ground track

The orbit data is extracted from the following two-line orbital elements,

1 18422U 87088B   15212.29911530  .00000183  00000-0  19609-4 0  9990
2 18422 082.5121 100.4506 0019678 176.8811 323.0670 14.82748486500027
Epoch (UTC): 31 July 2015 07:10:43
Eccentricity: 0.0019678
inclination: 82.5121°
perigee height: 607 km
apogee height: 634 km
right ascension of ascending node: 100.4506°
argument of perigee: 176.8811°
revolutions per day: 14.82748486
mean anomaly at epoch: 323.0670°
orbit number at epoch: 50002

The dashed part of the orbit path shows where the satellite is in the earth's shadow,  

DLR